DECAYED

STARLINK-4057, 53269 (Decayed)

Orbit data source: Space-Track

STARLINK-4057, 53269 was a payload satellite owned by SpaceX/Seattle (US) in LEO that was launched on Sun, 24 Jul 2022 UTC via an FALCON 9 launch vehicle from the Air Force Eastern Test Range (AFETR). Payload-class satellites include a variety of spacecraft equipped with specific instruments for various scientific and technological missions. These include communications satellites like Starlink; space stations such as the ISS; scientific satellites like the Hubble; Earth observation satellites from companies like Planet Labs, Umbra, and HawkEye 360; GPS; miniature CubeSats for education and research; and military/defense satellites.

Not visible in the next 10 days
Identifier
53269, 2022-086AD
Orbit
Decayed
Country
Flag of USUS
Related business
Manufacturer
SpaceX/Seattle
Mission
Decayed Commercial Communications
Bus & Motor
STARLINK, Unknown motor
Mass
297 kg wet, ~275 kg dry
Launch date (UTC)
2022-07-24 (4 years ago)
Launch vehicle
FALCON 9
Launch site
Air Force Eastern Test Range (AFETR)
Object type
Payload
Rocket body
Debris
Shape & HBR
Box + 1 Pan, 10.1 m
Radar Cross Section
13.562 m², Large (>1 m²)

Expand to show TLE details & history
Last TLE update: 3 months ago

TLE from 3 months ago
0 STARLINK-4057
1 53269U 22086AD  26086.81660041  .10765311  12459-4  29794-3 0  9994
2 53269  53.2009  79.3303 0005627 249.0967 110.9482 16.45228733204268
Epoch: 2026-03-27T19:35Z
TLE epoch observation values (Epoch: 2026-03-27T19:35:54.275Z)
Latitude
Longitude
-39.89161°
Altitude
154.194 km
Speed
7.814 km/s
True Right ascension
05h 17m 19s
True Declination
0° 00' 00"
Sunlit
Object was in daylight at epoch
Visualization orbit readout
Latitude
Unknown
Longitude
Unknown
Altitude
Unknown
Speed
Unknown
Apparent Right ascension
Unknown
Apparent Declination
Unknown
Sunlit
N/A
Visualization observer readout
Local Sidereal Time
21:28:59
Azimuth
Unknown
Elevation
Unknown
Doppler factor
Unknown
Orbital elements
Apogee altitude
155.867 km
Perigee altitude
148.517 km
Semi-major axis
6,530.329 km
Eccentricity
0.00056
Inclination
53.2009°
RAAN
79.3303°
Arg. of periapsis
249.0967°
True anomaly
111.0084°
Mean anomaly
110.9482°
Eccentric anomaly
110.9783°
Mean motion
4.11283 °/min
Orbital period
87.53 mins
BSTAR
0.00029794
Loading maneuver chart data...
Computing Atmospheric mass density...
Loading historical data...
Loading historical data...
Loading historical data...
Loading historical data...
Loading historical data...
Loading historical data...
Loading historical data...

Documentation

Showing up to 5 results
|